Regional Weather Roundup
Issued by NWS Upton, NY

Current Version | Previous Version | Graphics & Text | Print | Product List | Glossary On
Versions: 1 2 3 4 5 6 7 8 9 10 11 12 13 14 15 16 17 18 19 20 21 22 23 24 25 26 27 28 29 30 31 32 33 34 35 36 37 38 39 40 41 42 43 44 45 46 47 48 49 50
475 ASUS41 KOKX 122004 RWROKX REGIONAL WEATHER ROUNDUP NATIONAL WEATHER SERVICE NEW YORK NY 300 PM EST FRI FEB 12 2016 NOTE: "FAIR" INDICATES FEW OR NO CLOUDS BELOW 12,000 FEET WITH NO SIGNIFICANT WEATHER AND/OR OBSTRUCTIONS TO VISIBILITY. NYZ071-072-176-178-NJZ106-104-122100- NEW YORK CITY METRO AREA CITY SKY/WX TMP DP RH WIND PRES REMARKS CENTRAL PARK CLOUDY 26 -1 31 VRB5 30.08F WCI 20 LAGUARDIA APRT CLOUDY 26 0 32 SW13 30.07F WCI 15 KENNEDY INTL CLOUDY 25 5 42 SW7 30.10F WCI 17 NEWARK/LIBERTY CLOUDY 27 0 31 SW10 30.07F WCI 17 BRNX BOT. GARD N/A 27 0 31 SW5 30.08R WCI 21 TETERBORO MOSUNNY 27 -3 27 S13G21 30.07F WCI 16 $$ NYZ177-179-078>081-122100- LONG ISLAND NEW YORK CITY SKY/WX TMP DP RH WIND PRES REMARKS FARMINGDALE CLOUDY 24 6 46 SW10 30.09F WCI 14 ISLIP CLOUDY 23 7 50 SW15 30.09F WCI 10 SHIRLEY MOSUNNY 23 8 52 S8G17 30.10F WCI 14 RIVERHEAD N/A 27 -4 26 W3 30.07F WESTHAMPTON CLOUDY 22 5 48 SW9 30.11F WCI 12 EAST HAMPTON FAIR 22 6 51 SW8 30.10F WCI 12 MONTAUK POINT N/A 23 8 52 S7 30.11F WCI 15 $$ NYZ052-065-067-122100- HUDSON VALLEY CITY SKY/WX TMP DP RH WIND PRES REMARKS WHITE PLAINS PTSUNNY 24 -2 32 S5 30.03F WCI 18 NEWBURGH MOSUNNY 25 3 39 SW9G17 30.01F WCI 15 MONTGOMERY CLOUDY 25 2 37 SW13 30.00F WCI 14 POUGHKEEPSIE CLOUDY 27 -1 30 SW8 30.02F WCI 19 ALBANY CLOUDY 24 2 38 S12 29.99F WCI 13 $$ NJZ001-105-106-008-010-013-015-019>022-104-122100- NEW JERSEY CITY SKY/WX TMP DP RH WIND PRES REMARKS NEWARK/LIBERTY CLOUDY 27 0 31 SW10 30.07F WCI 17 TETERBORO MOSUNNY 27 -3 27 S13G21 30.07F WCI 16 CALDWELL CLOUDY 25 -2 31 SW9 30.07F WCI 15 MORRISTOWN CLOUDY 25 3 39 SW13 30.10S WCI 13 SOMERVILLE CLOUDY 24 2 38 VRB3 30.06F SUSSEX CLOUDY 23 2 40 SW9G17 30.01F WCI 13 ANDOVER N/A 22 1 40 VRB5 30.02F WCI 16 TRENTON CLOUDY 25 4 40 SW13 30.07F WCI 14 MILLVILLE CLOUDY 26 4 38 W7 30.10F WCI 18 ATLANTIC CITY PTSUNNY 27 1 32 SW10 30.09F WCI 17 WRIGHTSTOWN PTSUNNY 26 1 34 W10 30.05F WCI 16 TOMS RIVER PTSUNNY 28 0 29 W9 30.08F WCI 20 BELMAR CLOUDY 27 0 31 W9 30.07F WCI 17 $$ PAZ047>061-062-071-122100- EASTERN PENNSYLVANIA CITY SKY/WX TMP DP RH WIND PRES REMARKS PHILADELPHIA CLOUDY 25 1 35 W6 30.10F WCI 18 ALLENTOWN CLOUDY 22 5 48 SW10 30.06F WCI 11 SCRANTON CLOUDY 19 4 51 SW10G18 29.97F WCI 7 $$ CTZ002-004>006-009-010-012-RIZ004-006-007-MAZ004-011-015-122100- SOUTHERN NEW ENGLAND IN CT CITY SKY/WX TMP DP RH WIND PRES REMARKS BRADLEY INTL CLOUDY 23 1 38 SW12 30.03F WCI 12 HARTFORD CLOUDY 24 1 36 S9 30.06F WCI 14 DANBURY CLOUDY 23 -3 32 S8 30.04F WCI 14 WTRBRY/OXFORD CLOUDY 21 0 39 S10 30.02F WCI 10 BRIDGEPORT CLOUDY 25 4 40 SW9 30.08F WCI 15 MERIDEN MOSUNNY 23 3 42 S9G20 30.06F WCI 13 NEW HAVEN CLOUDY 23 5 46 SW10 30.08F WCI 12 CHESTER FAIR 23 5 46 S10 30.06F WCI 12 GROTON MOSUNNY 22 10 60 SW8 30.09F WCI 12 WILLIMANTIC CLOUDY 24 -1 33 SW9 30.06F WCI 14 IN RI CITY SKY/WX TMP DP RH WIND PRES REMARKS PROVIDENCE PTSUNNY 23 0 36 SW10 30.08F WCI 12 BLOCK ISLAND CLOUDY 25 7 46 SW9 30.07F WCI 15 WESTERLY CLOUDY 23 7 50 SW12 30.09F WCI 12 IN MA CITY SKY/WX TMP DP RH WIND PRES REMARKS BOSTON CLOUDY 23 1 38 W8 30.06F WCI 14 WORCESTER CLOUDY 18 1 47 SW9 29.97F WCI 7 WESTFIELD CLOUDY 22 -1 36 S12 30.02F WCI 10 PROVINCETOWN MOSUNNY 22 6 50 SW10 30.10F WCI 11 NANTUCKET MOSUNNY 23 8 52 W9 30.11F WCI 13 $$ ANZ330-335-338-340-345-350-353-355-122100- COASTAL MARINE OBSERVATIONS STATION/POSITION TIME SKY/WX TEMP WIND PRES VSBY WAVE AIR SEA DIR/SP/G HT/PER (UTC) (F) (DEG/KT/KT) (MB) (MI) (FT/S) NY HARB ENTRANCE 1850 23 42 210/ 10/ 14 1020.0 1/11 4S FIRE IS NOT AVBL 20S FIRE ISLAND 1850 23 41 220/ 8/ 12 1020.6 2/ 5 GREAT SOUTH BAY NOT AVBL 23SW MTP 1950 24 45 230/ 10/ 16 1019.3 3/ 6 HUDSON CANYON 1850 27 48 1020.7 3/ 5 KINGS POINT 1900 24 36 220/ 12/ 14 1018.7 EXECUTION ROCKS NOT AVBL CENTRAL LI SOUND 1900 23 250/ 6/ 8 N/A 1/ 4 EASTERN LI SOUND 1900 25 40 240/ 10/ 16 N/A ROBBINS REEF 1900 24 260/ 8/ 14 1018.6 $$ >>>>>>>>>>>>>>>>>>>>>>>>>>>> KEY <<<<<<<<<<<<<<<<<<<<<<<<<<< > < > SKY/WX - SKY CONDITION/PRESENT WEATHER < > TMP - TEMPERATURE IN FAHRENHEIT < > DP - DEWPOINT IN FAHRENHEIT < > RH - RELATIVE HUMIDITY IN PERCENT < > WIND - DIRECTION AND SPEED IN MPH < > PRES - MEAN SEA LEVEL PRESSURE IN INCHES OF HG < > WCI - WIND CHILL INDEX < > VSB - VISIBILITY IN MILES < > HX - HEAT INDEX < > TC - TEMPERATURE IN CELSIUS < > VRB - VARIABLE WIND DIRECTION < > < >>>>>>>>>>>>>>>>>>>>>>>>>>>> KEY <<<<<<<<<<<<<<<<<<<<<<<<<<<

USA.gov is the U.S. government's official web portal to all federal, state and local government web resources and services.